www.pogodaiklimat.ru

Погода и климат >> Архив погоды >> Австралия >> Квинсленд >> Нормантон


ПОГОДА в Нормантоне

  • Прогноз погоды в Нормантоне
  • Монитор погоды в Нормантоне

АРХИВ ПОГОДЫ в Нормантоне

Время (UTC), дата Ветер
(напр.,м/с)
 
Видим.   Явления Облачность Т
(С)
Тd
(С)
f
(%)
Тe
(С)
Тes
(С)
Комфортность P
(гПа)
Po
(гПа)
Тmin
(С)
Tmax
(С)
R
(мм)
R24
(мм)
S
(см)
05 13.09 ЮВ 6 н/о н/о +30.8 +2.1 16 +28 +28 жарко 1016.9 1014.7
08 13.09 ЮВ 5 н/о н/о +30.2 +2.5 17 +28 +28 жарко 1016.6 1014.4
11 13.09 Ю 2 н/о н/о +23.9 +4.3 28 +24 +24 комфорт 1018.0 1015.8
14 13.09 ЮВ 3 н/о н/о +22.6 +4.2 30 +23 +23 комфорт 1017.9 1015.7 +32.4
17 13.09 В 3 н/о н/о +18.9 +4.3 38 +20 +20 1018.1 1015.9
20 13.09 СВ 2 н/о н/о +17.3 +1.3 34 +18 +18 1019.5 1017.3
23 13.09 СВ 4 н/о н/о +24.5 +2.0 23 +23 +23 комфорт 1021.5 1019.3
02 14.09 В 6 н/о н/о +31.1 -2.8 11 +28 +28 жарко 1018.7 1016.5 +16.5
05 14.09 ЮВ 4 н/о н/о +33.7 -5.1 8 +30 +30 жарко 1015.2 1013.0
08 14.09 В 4 н/о н/о +32.4 -6.0 8 +28 +28 жарко 1015.1 1012.9
11 14.09 В 2 н/о н/о +25.3 -3.2 15 +23 +23 комфорт 1016.5 1014.3
14 14.09 Ю 4 н/о н/о +20.2 +8.5 47 +22 +22 комфорт 1016.5 1014.3 +34.4
17 14.09 СВ 3 н/о н/о +20.9 +6.1 38 +22 +22 комфорт 1017.1 1014.9
20 14.09 СВ 3 н/о н/о +18.8 +4.6 39 +19 +19 1018.2 1016.0
23 14.09 С 4 н/о н/о +23.8 +3.2 26 +23 +23 комфорт 1020.6 1018.4
02 15.09 В 3 н/о н/о +29.3 0.0 15 +27 +27 жарко 1018.6 1016.4 +18.3
05 15.09 ЮВ 5 н/о н/о +33.2 -3.9 9 +29 +29 жарко 1014.9 1012.7
08 15.09 В 2 н/о н/о +32.4 -4.5 9 +29 +29 жарко 1014.3 1012.1
11 15.09 С 2 н/о н/о +23.1 +10.9 46 +25 +25 комфорт 1016.5 1014.3
14 15.09 СЗ 3 н/о н/о +19.5 +13.2 67 +21 +21 комфорт 1015.9 1013.7 +34.1
17 15.09 СВ 3 н/о н/о +18.4 +14.3 77 +19 +19 1016.8 1014.6
20 15.09 СВ 2 н/о н/о +17.2 +13.5 79 +18 +18 1018.7 1016.5
23 15.09 СВ 6 н/о н/о +23.9 +9.1 39 +25 +25 комфорт 1020.1 1017.9
02 16.09 СВ 3 н/о н/о +28.2 +8.0 28 +28 +28 жарко 1018.1 1015.9 +16.1
05 16.09 Ю 5 н/о н/о +32.1 +4.8 18 +30 +30 жарко 1015.0 1012.8
08 16.09 ЮВ 3 н/о н/о +31.6 +2.7 16 +29 +29 жарко 1014.2 1012.0
11 16.09 З 3 н/о н/о +23.8 +9.4 40 +25 +25 комфорт 1016.1 1013.9
14 16.09 З 4 н/о н/о +21.0 +11.3 54 +23 +23 комфорт 1015.7 1013.5 +33.3
17 16.09 ЮЗ 4 н/о н/о +20.5 +10.6 53 +22 +22 комфорт 1014.4 1012.2
20 16.09 СВ 3 н/о н/о +17.6 +10.0 61 +18 +18 1016.5 1014.3
23 16.09 СВ 4 н/о н/о +25.3 +11.8 43 +27 +27 жарко 1019.1 1016.9
02 17.09 З 3 н/о н/о +30.4 +9.3 27 +30 +30 жарко 1017.4 1015.2 +17.6
05 17.09 З 4 н/о н/о +32.9 +12.0 28 +33 +33 жарко 1014.6 1012.4
08 17.09 СЗ 7 н/о н/о +27.7 +12.9 40 +29 +29 жарко 1014.9 1012.7
11 17.09 З 3 н/о н/о +22.8 +13.8 57 +26 +26 жарко 1016.6 1014.4
14 17.09 СЗ 2 н/о н/о +20.5 +16.1 76 +24 +24 комфорт 1016.2 1014.0 +33.9
17 17.09 З 4 н/о н/о +19.3 +18.1 93 +21 +21 комфорт 1015.4 1013.2
20 17.09 С 3 н/о н/о +17.4 +16.8 96 +18 +18 1017.5 1015.3
23 17.09 С 4 н/о н/о +24.6 +16.1 59 +28 +28 душно 1019.1 1016.9
02 18.09 СЗ 4 н/о н/о +30.2 +12.1 33 +31 +31 жарко 1017.7 1015.5 +16.8
05 18.09 Ю 3 н/о н/о +34.4 +8.2 20 +33 +33 жарко 1014.5 1012.3
08 18.09 СЗ 5 н/о н/о +30.2 +13.9 37 +32 +32 жарко 1014.5 1012.3
11 18.09 З 3 н/о н/о +24.8 +14.6 53 +27 +27 жарко 1015.4 1013.2
14 18.09 ЮЗ 3 н/о н/о +21.5 +14.9 66 +25 +25 комфорт 1015.3 1013.1 +35.1
17 18.09 Ю 4 н/о н/о +22.0 +10.2 47 +24 +24 комфорт 1014.3 1012.1
20 18.09 СВ 2 н/о н/о +17.0 +12.9 77 +17 +17 1015.2 1013.0
23 18.09 С 3 н/о н/о +25.1 +16.0 57 +28 +28 жарко 1017.6 1015.4
02 19.09 СЗ 5 н/о н/о +32.4 +8.0 22 +31 +31 жарко 1015.6 1013.4 +17.0
05 19.09 СЗ 6 н/о н/о +33.4 +10.1 24 +33 +33 жарко 1012.5 1010.3
08 19.09 СЗ 6 н/о н/о +29.3 +9.4 29 +29 +29 жарко 1012.7 1010.5
11 19.09 СЗ 3 н/о н/о +23.7 +13.0 51 +26 +26 жарко 1013.7 1011.5
14 19.09 С 3 н/о н/о +20.7 +15.5 72 +24 +24 комфорт 1013.4 1011.2 +34.7
17 19.09 С 3 н/о н/о +20.4 +16.2 77 +24 +24 комфорт 1014.1 1011.9
20 19.09 В 3 н/о н/о +18.0 +15.8 87 +18 +18 1015.6 1013.4
23 19.09 СВ 4 н/о н/о +25.8 +10.0 37 +27 +27 жарко 1017.8 1015.6
02 20.09 С 4 н/о н/о +30.9 +7.4 23 +30 +30 жарко 1015.8 1013.6 +17.8

 

Местоположение метеостанции Нормантон (Квинсленд, Австралия): широта -17.68 долгота 141.07 высота над уровнем моря 19 м.

В архиве по умолчанию представлена погода в Нормантоне за последнюю неделю. Архивные данные за месяц целиком и за предыдущие месяцы, начиная с января 2011 года, Вы можете получить, выбрав интересующий диапазон дат из раскрывающегося списка и нажав кнопку "Ввод!".


*Определитесь, кто Вы:
робот инопланетянин человек

Внимание! Время в таблицах - всемирное. Для получения местного времени необходимо прибавить поправку, которая равна 10 ч.

Смотрите также архив погоды в соседних городах и на ближайших метеорологических станциях:

Погода в Беркетауне (Квинсленд, Австралия) (163 км)
Погода на Острове Морнингтон (Квинсленд, Австралия) (232 км)
Погода в Кованьяме (Квинсленд, Австралия) (255 км)
Погода в Джорджтауне (Квинсленд, Австралия) (269 км)
Погода на Руднике Century Mine (Квинсленд, Австралия) (277 км)
Погода на Озере Джулиус (Квинсленд, Австралия) (306 км)
Погода в Клонкарри (Квинсленд, Австралия) (338 км)
Погода в Джулия Крик (Квинсленд, Австралия) (340 км)
Погода в Палмервилле (Квинсленд, Австралия) (370 км)
Погода в Нью Мэй Даун (Квинсленд, Австралия) (371 км)

Пояснения к столбцам:

Ветер - указаны скорость ветра в м/с - средняя за 10 мин, порывы в срок и между сроками (в фигурных скобках) и направление, откуда дует ветер: С - северный, СВ - северо-восточный, В - восточный, ЮВ - юго-восточный, Ю - южный, ЮЗ - юго-западный, З - западный, СЗ - северо-западный.
Видимость - горизонтальная дальность видимости в метрах или километрах. При видимости от 1 до 10 км при отсутствии осадков обычно наблюдается дымка, при ухудшении видимости до 1 км и менее - туман. В сухую погоду видимость может ухудшаться дымом, пылью или мглою.
Явления - указаны атмосферные явления, наблюдавшиеся в срок или в последний час перед сроком; фигурными скобками обозначены явления, наблюдавшиеся между сроками (за 1-3 часа до срока); квадратными скобками обозначены град или гололедные отложения с указанием их диаметра в мм.
Облачность - указаны через наклонную черту общая и нижняя облачность в баллах и высота нижней границы облаков в метрах; квадратными скобками обозначены формы облаков: Ci - перистые, Cs - перисто-слоистые, Cc - перисто-кучевые, Ac - высококучевые, As - высокослоистые, Sc - слоисто-кучевые, Ns - слоисто-дождевые, Cu - кучевые, Cb - кучево-дождевые. Подробнее классификацию облаков см. в Атласе облаков (PDF).
T - Температура воздуха - температура, измеренная на высоте 2 м над землей.
Td - Температура точки росы - температура, при понижении до которой содержащийся в воздухе водяной пар достигнет насыщения.
f - Относительная влажность воздуха - влажноcть воздуха, измеренная на высоте 2 м над землей.
Te - Эффективная температура - температура, которую ощущает одетый по сезону человек в тени. Характеристика душности погоды. При расчете учитывается влияние влажности воздуха и скорости ветра на теплоощущения человека.
Tes - Эффективная температура на солнце - температура, которую ощущает человек, с поправкой на солнечный нагрев. Характеристика знойности погоды. Зависит от высоты солнца над горизонтом, облачности и скорости ветра. Ночью, в пасмурную погоду, а также при ветре 12 м/с и более поправка равна нулю.
P - Атмосферное давление - приведенное к уровню моря атмосферное давление.
Po - Атмосферное давление - измеренное на уровне метеостанции атмосферное давление.
Tmin - Минимальная температура - минимум температуры воздуха на высоте 2 м над землей.
Tmax - Максимальная температура - максимум температуры воздуха на высоте 2 м над землей.
R - Количество осадков - Количество выпавших осадков за период времени, мм. При наведении курсора мыши на число - период времени, за который выпало указанное количество осадков.
R24 - Количество осадков - Количество выпавших осадков за 24 часа, мм.
S - Снежный покров - Высота снежного покрова, см. При наведении курсора мыши на число - состояние снежного покрова и степень покрытия местности в баллах.